• In Deutschland
  • Länderverzeichnis
  • Für 7 Tage
  • Wassertemperatur
  • Satellitenkarten
  • Wetterkarte
  • Widgets
  • user-avatar
    Anmelden

    Stündliche Wetter Dundong

    Heute, 21 September, Freitag

    Zeit Temperatur Niederschläge Wind Luftdruck Luftfeuchtigkeit
    00:00 +21°C° 0 mm 0 m/S 696 mmHg 94%
    01:00 +21°C° 0 mm 0 m/S 696 mmHg 95%
    02:00 +20°C° 0 mm 0 m/S 696 mmHg 96%
    03:00 +20°C° 0 mm 0 m/S 696 mmHg 96%
    04:00 +20°C° 0 mm 0 m/S 695 mmHg 97%
    05:00 +21°C° 0 mm 0 m/S 696 mmHg 94%
    06:00 +22°C° 0 mm 0 m/S 697 mmHg 91%
    07:00 +23°C° 0 mm 0 m/S 697 mmHg 89%
    08:00 +25°C° 0.1 mm 0 m/S 697 mmHg 80%
    09:00 +29°C° 0.1 mm 1 m/S 698 mmHg 72%
    10:00 +31°C° 0.1 mm 1 m/S 698 mmHg 63%
    11:00 +32°C° 0.1 mm 1 m/S 698 mmHg 59%
    12:00 +32°C° 0.1 mm 1 m/S 698 mmHg 55%
    13:00 +33°C° 0.1 mm 1 m/S 697 mmHg 52%
    14:00 +32°C° 0.2 mm 1 m/S 697 mmHg 55%
    15:00 +32°C° 0.2 mm 2 m/S 696 mmHg 59%
    16:00 +31°C° 0.2 mm 2 m/S 696 mmHg 62%
    17:00 +29°C° 0.3 mm 1 m/S 696 mmHg 69%
    18:00 +27°C° 0.3 mm 1 m/S 696 mmHg 76%
    19:00 +25°C° 0.3 mm 1 m/S 696 mmHg 83%
    20:00 +24°C° 0.3 mm 1 m/S 697 mmHg 85%
    21:00 +24°C° 0.3 mm 1 m/S 697 mmHg 88%
    22:00 +23°C° 0.3 mm 1 m/S 698 mmHg 90%
    23:00 +23°C° 0 mm 1 m/S 698 mmHg 91%

    Morgen, 22 September, Samstag

    Zeit Temperatur Niederschläge Wind Luftdruck Luftfeuchtigkeit
    00:00 +23°C° 0 mm 1 m/S 698 mmHg 93%
    01:00 +22°C° 0 mm 1 m/S 698 mmHg 94%
    02:00 +22°C° 0 mm 1 m/S 697 mmHg 95%
    03:00 +22°C° 0 mm 1 m/S 697 mmHg 96%
    04:00 +21°C° 0 mm 1 m/S 697 mmHg 97%
    05:00 +22°C° 0 mm 1 m/S 698 mmHg 95%
    06:00 +22°C° 0 mm 1 m/S 698 mmHg 94%
    07:00 +23°C° 0 mm 1 m/S 698 mmHg 92%
    08:00 +24°C° 0 mm 1 m/S 699 mmHg 86%
    09:00 +26°C° 0 mm 1 m/S 699 mmHg 79%
    10:00 +27°C° 0 mm 1 m/S 699 mmHg 73%
    11:00 +29°C° 0.2 mm 1 m/S 699 mmHg 70%
    12:00 +30°C° 0.2 mm 1 m/S 699 mmHg 66%
    13:00 +31°C° 0.2 mm 1 m/S 698 mmHg 62%
    14:00 +30°C° 0.5 mm 1 m/S 698 mmHg 66%
    15:00 +29°C° 0.5 mm 1 m/S 697 mmHg 70%
    16:00 +28°C° 0.5 mm 2 m/S 697 mmHg 74%
    17:00 +27°C° 0.8 mm 2 m/S 697 mmHg 80%
    18:00 +25°C° 0.8 mm 1 m/S 697 mmHg 87%
    19:00 +23°C° 0.8 mm 1 m/S 697 mmHg 93%
    20:00 +23°C° 0.3 mm 1 m/S 698 mmHg 94%
    21:00 +22°C° 0.3 mm 1 m/S 698 mmHg 95%
    22:00 +22°C° 0.3 mm 1 m/S 699 mmHg 96%
    23:00 +21°C° 0 mm 1 m/S 699 mmHg 96%

    übermorgen, 23 September, Sonntag

    Zeit Temperatur Niederschläge Wind Luftdruck Luftfeuchtigkeit
    00:00 +21°C° 0 mm 1 m/S 698 mmHg 96%
    01:00 +20°C° 0 mm 1 m/S 698 mmHg 96%
    02:00 +20°C° 0 mm 1 m/S 698 mmHg 96%
    03:00 +20°C° 0 mm 1 m/S 698 mmHg 96%
    04:00 +19°C° 0 mm 1 m/S 698 mmHg 96%
    05:00 +20°C° 0 mm 1 m/S 698 mmHg 94%
    06:00 +20°C° 0 mm 1 m/S 699 mmHg 92%
    07:00 +21°C° 0 mm 1 m/S 699 mmHg 90%
    08:00 +22°C° 0 mm 1 m/S 699 mmHg 84%
    09:00 +24°C° 0 mm 1 m/S 700 mmHg 77%
    10:00 +26°C° 0 mm 2 m/S 700 mmHg 70%
    11:00 +27°C° 0 mm 2 m/S 699 mmHg 68%
    12:00 +28°C° 0 mm 2 m/S 699 mmHg 66%
    13:00 +28°C° 0 mm 2 m/S 698 mmHg 64%
    14:00 +28°C° 0.2 mm 2 m/S 698 mmHg 66%
    15:00 +28°C° 0.2 mm 2 m/S 697 mmHg 68%
    16:00 +27°C° 0.2 mm 2 m/S 697 mmHg 71%
    17:00 +26°C° 0 mm 2 m/S 697 mmHg 76%
    18:00 +24°C° 0 mm 2 m/S 697 mmHg 82%
    19:00 +22°C° 0 mm 1 m/S 697 mmHg 88%
    20:00 +22°C° 0 mm 1 m/S 698 mmHg 90%
    21:00 +21°C° 0 mm 1 m/S 698 mmHg 91%
    22:00 +20°C° 0 mm 1 m/S 698 mmHg 92%
    23:00 +20°C° 0 mm 1 m/S 698 mmHg 93%

    24 September, Montag

    Zeit Temperatur Niederschläge Wind Luftdruck Luftfeuchtigkeit
    00:00 +20°C° 0 mm 1 m/S 697 mmHg 94%
    01:00 +19°C° 0 mm 1 m/S 697 mmHg 94%
    02:00 +19°C° 0 mm 1 m/S 697 mmHg 94%
    03:00 +19°C° 0 mm 1 m/S 697 mmHg 94%
    04:00 +19°C° 0 mm 1 m/S 697 mmHg 94%
    05:00 +19°C° 0 mm 1 m/S 697 mmHg 93%
    06:00 +20°C° 0 mm 1 m/S 697 mmHg 91%
    07:00 +20°C° 0 mm 1 m/S 697 mmHg 90%
    08:00 +22°C° 0 mm 1 m/S 698 mmHg 86%
    09:00 +23°C° 0 mm 1 m/S 698 mmHg 82%
    10:00 +24°C° 0 mm 1 m/S 698 mmHg 78%
    11:00 +24°C° 0 mm 1 m/S 698 mmHg 76%
    12:00 +25°C° 0 mm 2 m/S 697 mmHg 74%
    13:00 +26°C° 0 mm 2 m/S 696 mmHg 72%
    14:00 +26°C° 0.1 mm 2 m/S 696 mmHg 73%
    15:00 +25°C° 0.1 mm 2 m/S 696 mmHg 74%
    16:00 +25°C° 0.1 mm 2 m/S 695 mmHg 75%
    17:00 +24°C° 0 mm 2 m/S 695 mmHg 80%
    18:00 +23°C° 0 mm 2 m/S 695 mmHg 85%
    19:00 +20°C° 0 mm 2 m/S 696 mmHg 91%
    20:00 +20°C° 0 mm 2 m/S 696 mmHg 91%
    21:00 +19°C° 0 mm 2 m/S 696 mmHg 92%
    22:00 +19°C° 0 mm 2 m/S 696 mmHg 93%
    23:00 +20°C° 0 mm 1 m/S 696 mmHg 93%

    25 September, Dienstag

    Zeit Temperatur Niederschläge Wind Luftdruck Luftfeuchtigkeit
    00:00 +19°C° 0 mm 1 m/S 696 mmHg 93%
    01:00 +19°C° 0 mm 1 m/S 695 mmHg 94%
    02:00 +19°C° 0 mm 1 m/S 695 mmHg 94%
    03:00 +19°C° 0 mm 1 m/S 695 mmHg 95%
    04:00 +18°C° 0 mm 1 m/S 695 mmHg 95%
    05:00 +19°C° 0 mm 1 m/S 695 mmHg 94%
    06:00 +19°C° 0 mm 1 m/S 695 mmHg 93%
    07:00 +19°C° 0 mm 1 m/S 696 mmHg 92%
    08:00 +20°C° 0.1 mm 1 m/S 696 mmHg 90%
    09:00 +20°C° 0.1 mm 1 m/S 696 mmHg 89%
    10:00 +21°C° 0.1 mm 1 m/S 696 mmHg 88%
    11:00 +21°C° 0.1 mm 1 m/S 696 mmHg 86%
    12:00 +22°C° 0.1 mm 1 m/S 696 mmHg 84%
    13:00 +23°C° 0.1 mm 1 m/S 695 mmHg 81%
    14:00 +23°C° 0 mm 1 m/S 695 mmHg 81%
    15:00 +23°C° 0 mm 2 m/S 695 mmHg 81%
    16:00 +23°C° 0 mm 2 m/S 694 mmHg 81%
    17:00 +21°C° 0 mm 2 m/S 695 mmHg 84%
    18:00 +20°C° 0 mm 2 m/S 695 mmHg 87%
    19:00 +19°C° 0 mm 2 m/S 695 mmHg 90%
    20:00 +18°C° 0.1 mm 2 m/S 696 mmHg 91%
    21:00 +18°C° 0.1 mm 2 m/S 696 mmHg 92%
    22:00 +18°C° 0.1 mm 2 m/S 696 mmHg 92%
    23:00 +17°C° 0.2 mm 2 m/S 696 mmHg 93%

    26 September, Mittwoch

    Zeit Temperatur Niederschläge Wind Luftdruck Luftfeuchtigkeit
    00:00 +18°C° 0.2 mm 1 m/S 696 mmHg 94%
    01:00 +18°C° 0.2 mm 1 m/S 695 mmHg 94%
    02:00 +18°C° 0.4 mm 1 m/S 695 mmHg 95%
    03:00 +18°C° 0.4 mm 1 m/S 695 mmHg 95%
    04:00 +17°C° 0.4 mm 2 m/S 695 mmHg 95%
    05:00 +18°C° 0.4 mm 1 m/S 695 mmHg 95%
    06:00 +18°C° 0.4 mm 1 m/S 696 mmHg 96%
    07:00 +18°C° 0.4 mm 1 m/S 696 mmHg 96%
    08:00 +18°C° 0.2 mm 1 m/S 696 mmHg 94%
    09:00 +18°C° 0.2 mm 1 m/S 697 mmHg 93%
    10:00 +19°C° 0.2 mm 1 m/S 697 mmHg 91%
    11:00 +19°C° 0.1 mm 2 m/S 697 mmHg 89%
    12:00 +19°C° 0.1 mm 2 m/S 696 mmHg 87%
    13:00 +20°C° 0.1 mm 2 m/S 696 mmHg 84%
    14:00 +20°C° 0 mm 2 m/S 695 mmHg 85%
    15:00 +19°C° 0 mm 2 m/S 695 mmHg 85%
    16:00 +19°C° 0 mm 2 m/S 695 mmHg 85%
    17:00 +19°C° 0 mm 2 m/S 695 mmHg 89%
    18:00 +19°C° 0 mm 1 m/S 695 mmHg 92%
    19:00 +18°C° 0 mm 1 m/S 695 mmHg 95%
    20:00 +18°C° 0 mm 1 m/S 696 mmHg 95%
    21:00 +16°C° 0 mm 1 m/S 696 mmHg 96%
    22:00 +16°C° 0 mm 1 m/S 696 mmHg 96%
    23:00 +16°C° 0 mm 1 m/S 696 mmHg 96%
    Mehr zeigen